Showing default

COSMOS 2252, 22687

Orbit data source: Space-Track

COSMOS 2252, 22687 is a payload satellite owned by VKS (CIS) in LEO that was launched on Thu, 24 Jun 1993 UTC via a TSIKLON-3 launch vehicle from the Plesetsk Missile And Space Complex (PKMTR). Payloads include a variety of satellites, spacecraft, and rockets equipped with specific instruments for various scientific and technological missions. These include communications satellites like Starlink; space stations such as the ISS; scientific satellites like the Hubble; Earth observation satellites from companies like Planet Labs, Umbra, and HawkEye 360; GPS; miniature CubeSats for education and research; and military/defense satellites.

Loading next visibility...
COSMOS 2252 details
Identifier
22687, 1993-038A
Orbit
LEO
Last TLE update22 hours ago
Origin
Flag of CISVKS (CIS)
ManufacturerNPO PM
MissionDefense Communications
Bus & MotorSTRELA-3, Unknown motor
Mass225 kg wet, 225 kg dry
Launch date (UTC)
1993-06-24 (32 years ago)
Launch vehicle
TSIKLON-3
Launch site
Plesetsk Missile And Space Complex (PKMTR)
Object type
Payload
Rocket body
Debris
Shape & HBRCyl, 1.6 m
Radar Cross Section1.257 m², Medium (>0.1 m² and < 1m²)

Expand to show TLE details & history

TLE from 22 hours ago
0 COSMOS 2252
1 22687U 93038A   25035.44805840  .00000041  00000-0  16511-3 0  9998
2 22687  82.5836 185.9915 0008149  33.3252  21.5196 12.63314611457678
Epoch: 2025-02-04T10:45Z
Definitive object data (Epoch: 2025-02-04T10:45:12.245Z)
Latitude54.29529°
Longitude-99.78003°
Altitude1,412.269 km
Speed7.162 km/s
True Right ascension13h 05m 29s
True Declination54° 08' 45"
Sunlit
Object was in daylight at TLE epoch
Visualization TLE readout
Latitude-77.75774°
Longitude-147.40296°
Altitude1,439.366 km
Speed7.141 km/s
Apparent Right ascension23h 22m 39s
Apparent Declination-74° 09' 21"
Sunlit
Object is in daylight
Visualization observer readout
Local Sidereal Time10:53:33
Azimuth183.507° SSW
Elevation-55.589°
Doppler factor1
Orbital elements
Apogee altitude1,412.956 km
Perigee altitude1,400.268 km
Semi-major axis7,784.749 km
Eccentricity0.0008149
Inclination82.5836°
RAAN185.9915°
Arg. of periapsis33.3252°
True anomaly21.55389°
Mean anomaly21.5196°
Eccentric anomaly21.53674°
Mean motion3.15992 °/min
BSTAR0.00016511
Orbital period113.93 mins
Loading maneuver chart data...
Loading historical data...
Loading historical data...
Loading historical data...
Loading historical data...
Loading historical data...
Loading historical data...
Loading historical data...

COSMOS 2252 Visibility forecast

Observer location: undefined°, undefined

Span
Click to sort rows by Start time (UTC) header in descending order
Start Az.
Max El. time (UTC)
Max El. Az.
Max El.
End time (UTC)
End Az.
13 mins2025-02-05 09:22:59.162Z138.227° SSE2025-02-05 09:28:59.162Z85.576° E27.352°2025-02-05 09:35:59.162Z27.033° NE
14 mins2025-02-05 11:16:59.162Z211.198° SW2025-02-05 11:23:59.162Z292.896° NW38.31°2025-02-05 11:30:59.162Z357.163° N
14 mins2025-02-05 21:17:59.162Z1.153° NNE2025-02-05 21:24:59.162Z93.752° ESE41.84°2025-02-05 21:31:59.162Z159.202° S
11 mins2025-02-05 23:13:59.162Z320.278° NNW2025-02-05 23:18:59.162Z275.848° WNW23.101°2025-02-05 23:24:59.162Z228.2° WSW
|